DMSP 5D-2 F13 DEB, 42286

Orbit data source: Space-Track

DMSP 5D-2 F13 DEB, 42286 is space debris in SSO originally from a launch on Fri, 24 Mar 1995 UTC launched from the Air Force Western Test Range (AFWTR). Debris objects in space refer to the collection of defunct objects orbiting the Earth. Examples of debris include non-operational satellites, rocket bodies, and fragments generated from explosions, collisions, or faulty payload assembly.

Loading next visibility...
Identifier
42286, 1995-015HC
Orbit
SSO
Country
Flag of USUS
Related business
Manufacturer
Unknown
Mission
Spacecraft
Bus & Motor
Unknown
Mass
Unknown
Launch date (UTC)
1995-03-24 (31 years ago)
Launch vehicle
Unknown
Launch site
Air Force Western Test Range (AFWTR)
Object type
Payload
Rocket body
Debris
Shape & HBR
Unknown shape, 0.1 m
Radar Cross Section
Small (<0.1 m²)

Expand to show TLE details & history
Last TLE update: 1 week ago

TLE from 1 week ago
0 DMSP 5D-2 F13 DEB
1 42286U 95015HC  26165.73091701  .00003872  00000-0  16391-2 0  9992
2 42286  98.9236 143.9236 0054908  80.6850 280.0532 14.25241573570435
Epoch: 2026-06-14T17:32Z
TLE epoch observation values (Epoch: 2026-06-14T17:32:31.229Z)
Latitude
-0.00004°
Longitude
-22.23397°
Altitude
803.917 km
Speed
7.455 km/s
True Right ascension
09h 35m 41s
True Declination
0° 00' 00"
Sunlit
Object was in daylight at epoch
Visualization orbit readout
Latitude
Unknown
Longitude
Unknown
Altitude
Unknown
Speed
Unknown
Apparent Right ascension
Unknown
Apparent Declination
Unknown
Sunlit
N/A
Visualization observer readout
Local Sidereal Time
16:33:49
Azimuth
Unknown
Elevation
Unknown
Doppler factor
Unknown
Orbital elements
Apogee altitude
844.283 km
Perigee altitude
765.402 km
Semi-major axis
7,182.979 km
Eccentricity
0.00549
Inclination
98.9236°
RAAN
143.9236°
Arg. of periapsis
80.685°
True anomaly
279.43293°
Mean anomaly
280.0532°
Eccentric anomaly
279.74314°
Mean motion
3.56522 °/min
Orbital period
100.98 mins
BSTAR
0.0016391
Loading maneuver chart data...
Computing Atmospheric mass density...

Documentation

Showing up to 5 results
|